Showing default

TIANQI 36, 62368

Orbit data source: Space-Track

TIANQI 36, 62368 is a payload satellite owned by Guodian Gaokeji (CN) in LEO that was launched on Thu, 19 Dec 2024 UTC via a GUSHENXING 1 launch vehicle from the Yellow Sea Launch Area, China (YSLA). Payload-class satellites include a variety of spacecraft equipped with specific instruments for various scientific and technological missions. These include communications satellites like Starlink; space stations such as the ISS; scientific satellites like the Hubble; Earth observation satellites from companies like Planet Labs, Umbra, and HawkEye 360; GPS; miniature CubeSats for education and research; and military/defense satellites.

Loading next visibility...
Identifier
62368, 2024-245D
Orbit
LEO
Country
Flag of CNCN / PRC
Related business
Manufacturer
Shanghai ASES
Mission
Operational Commercial Communications
Bus & Motor
STARLIGHTB, Unknown motor
Mass
40 kg wet, ~40 kg dry
Launch date (UTC)
2024-12-19 (2 years ago)
Launch vehicle
GUSHENXING 1
Launch site
Yellow Sea Launch Area, China (YSLA)
Object type
Payload
Rocket body
Debris
Shape & HBR
Box, 0.3 m
Radar Cross Section
0.195 m², Medium (>0.1 m² and < 1m²)

Expand to show TLE details & history
Last TLE update: 9 hours ago

TLE from 9 hours ago
0 TIANQI 36
1 62368U 24245D   26171.46664248  .00000039  00000-0  11470-3 0  9997
2 62368  44.9856 306.9162 0007266  30.0132 330.1116 13.99221946 76802
Epoch: 2026-06-20T11:11Z
TLE epoch observation values (Epoch: 2026-06-20T11:11:57.910Z)
Latitude
-0.00001°
Longitude
-129.75596°
Altitude
891.907 km
Speed
7.41 km/s
True Right ascension
20h 27m 39s
True Declination
0° 00' 00"
Sunlit
Object was in full shadow at epoch
Visualization orbit readout
Latitude
Unknown
Longitude
Unknown
Altitude
Unknown
Speed
Unknown
Apparent Right ascension
Unknown
Apparent Declination
Unknown
Sunlit
N/A
Visualization observer readout
Local Sidereal Time
07:12:17
Azimuth
Unknown
Elevation
Unknown
Doppler factor
Unknown
Orbital elements
Apogee altitude
903.298 km
Perigee altitude
892.724 km
Semi-major axis
7,276.148 km
Eccentricity
0.00073
Inclination
44.9856°
RAAN
306.9162°
Arg. of periapsis
30.0132°
True anomaly
330.07008°
Mean anomaly
330.1116°
Eccentric anomaly
330.09084°
Mean motion
3.49696 °/min
Orbital period
102.95 mins
BSTAR
0.0001147
Loading maneuver chart data...
Computing Atmospheric mass density...
Loading historical data...
Loading historical data...
Loading historical data...
Loading historical data...
Loading historical data...
Loading historical data...
Loading historical data...
Other satellites on launch #245 in the year 2024 (2024-12-19 UTC)

Documentation

Showing up to 5 results
|